QAK641 MMAA-MMDO

Flight info

Callsign QAK641
Flight time N/A
Altitude 36000
Route AGLON1B AGLON UJ3 ALIPO/N0440F370 UJ17 MLM/N0442F360 UJ63 DGO
Aircraft B752/M-SDE2E3FGHIJ3J4J7RWXY/LB1

Departure

Time 2026-04-20 20:57
Airport General Juan N. Álvarez International Airport (MMAA)

Arrival

Time N/A
Airport General Guadalupe Victoria International Airport (MMDO)
Time Latitude Longitude Altitude Speed Heading
2026-04-20 20:21 16.76134 -99.75559 30 ft 0 kts 18°
2026-04-20 20:26 16.76122 -99.75563 30 ft 2 kts 18°
2026-04-20 20:26 16.76108 -99.75568 30 ft 2 kts 18°
2026-04-20 20:26 16.76094 -99.75573 30 ft 2 kts 18°
2026-04-20 20:26 16.76077 -99.75578 30 ft 3 kts 19°
2026-04-20 20:27 16.76056 -99.75591 30 ft 3 kts 47°
2026-04-20 20:27 16.76047 -99.75610 30 ft 2 kts 91°
2026-04-20 20:27 16.76052 -99.75624 30 ft 2 kts 133°
2026-04-20 20:27 16.76066 -99.75636 30 ft 1 kts 117°
2026-04-20 20:28 16.76067 -99.75641 30 ft 0 kts 108°
2026-04-20 20:33 16.76064 -99.75630 30 ft 3 kts 109°
2026-04-20 20:33 16.76055 -99.75609 30 ft 3 kts 113°
2026-04-20 20:34 16.76052 -99.75600 30 ft 1 kts 114°
2026-04-20 20:34 16.76050 -99.75596 30 ft 2 kts 114°
2026-04-20 20:34 16.76040 -99.75572 30 ft 4 kts 113°
2026-04-20 20:38 16.76037 -99.75565 30 ft 0 kts 111°
2026-04-20 20:38 16.76026 -99.75536 30 ft 5 kts 110°
2026-04-20 20:38 16.76021 -99.75521 30 ft 0 kts 110°
2026-04-20 20:39 16.76021 -99.75520 30 ft 0 kts 110°
2026-04-20 20:39 16.76019 -99.75517 30 ft 2 kts 109°
2026-04-20 20:40 16.76016 -99.75506 30 ft 2 kts 108°
2026-04-20 20:40 16.76015 -99.75503 30 ft 1 kts 109°
2026-04-20 20:41 16.76014 -99.75500 30 ft 0 kts 109°
2026-04-20 20:42 16.76008 -99.75481 30 ft 4 kts 109°
2026-04-20 20:42 16.75996 -99.75442 30 ft 6 kts 105°
2026-04-20 20:42 16.75983 -99.75397 30 ft 6 kts 108°
2026-04-20 20:43 16.75960 -99.75365 30 ft 0 kts 144°
2026-04-20 20:43 16.75958 -99.75363 30 ft 1 kts 144°
2026-04-20 20:44 16.75955 -99.75361 30 ft 2 kts 144°
2026-04-20 20:44 16.75950 -99.75357 30 ft 3 kts 144°
2026-04-20 20:44 16.75946 -99.75354 30 ft 3 kts 144°
2026-04-20 20:45 16.75942 -99.75351 30 ft 4 kts 144°
2026-04-20 20:45 16.75937 -99.75348 30 ft 4 kts 144°
2026-04-20 20:45 16.75932 -99.75344 30 ft 4 kts 145°
2026-04-20 20:46 16.75925 -99.75339 30 ft 5 kts 145°
2026-04-20 20:47 16.75916 -99.75333 30 ft 5 kts 145°
2026-04-20 20:48 16.75895 -99.75314 30 ft 3 kts 127°
2026-04-20 20:48 16.75878 -99.75281 29 ft 8 kts 110°
2026-04-20 20:48 16.75853 -99.75202 29 ft 14 kts 107°
2026-04-20 20:48 16.75816 -99.75081 29 ft 20 kts 108°
2026-04-20 20:49 16.75771 -99.74943 29 ft 21 kts 109°
2026-04-20 20:49 16.75769 -99.74937 29 ft 21 kts 109°
2026-04-20 20:50 16.75741 -99.74850 29 ft 20 kts 107°
2026-04-20 20:50 16.75732 -99.74818 29 ft 20 kts 107°
2026-04-20 20:52 16.75709 -99.74744 29 ft 20 kts 107°
2026-04-20 20:53 16.75667 -99.74609 29 ft 19 kts 108°
2026-04-20 20:53 16.75666 -99.74605 29 ft 19 kts 108°
2026-04-20 20:53 16.75653 -99.74565 28 ft 19 kts 109°
2026-04-20 20:53 16.75612 -99.74435 28 ft 19 kts 108°
2026-04-20 20:54 16.75572 -99.74303 28 ft 19 kts 108°
2026-04-20 20:54 16.75531 -99.74166 28 ft 20 kts 107°
2026-04-20 20:54 16.75486 -99.74025 28 ft 20 kts 109°
2026-04-20 20:54 16.75439 -99.73885 28 ft 20 kts 108°
2026-04-20 20:55 16.75393 -99.73739 27 ft 21 kts 108°
2026-04-20 20:55 16.75346 -99.73589 27 ft 21 kts 108°
2026-04-20 20:55 16.75304 -99.73448 27 ft 19 kts 108°
2026-04-20 20:55 16.75249 -99.73335 27 ft 14 kts 156°
2026-04-20 20:56 16.75159 -99.73348 27 ft 12 kts 197°
2026-04-20 20:56 16.75095 -99.73388 27 ft 8 kts 253°
2026-04-20 20:56 16.75119 -99.73502 27 ft 34 kts 287°
2026-04-20 20:56 16.75268 -99.73981 28 ft 103 kts 289°
2026-04-20 20:57 16.75558 -99.74901 30 ft 163 kts 287°
2026-04-20 20:57 16.75985 -99.76115 346 ft 189 kts 285°
2026-04-20 20:57 16.76353 -99.77482 955 ft 208 kts 281°
2026-04-20 20:57 16.76801 -99.78950 1749 ft 216 kts 290°
2026-04-20 20:58 16.77318 -99.80444 2379 ft 229 kts 288°
2026-04-20 20:58 16.77837 -99.82069 2983 ft 244 kts 288°
2026-04-20 20:58 16.78023 -99.82661 3198 ft 250 kts 288°
2026-04-20 20:59 16.78076 -99.82832 3257 ft 251 kts 288°
2026-04-20 20:59 16.78629 -99.84624 3819 ft 268 kts 288°
2026-04-20 20:59 16.79288 -99.86420 4558 ft 261 kts 303°
2026-04-20 20:59 16.80449 -99.87591 5224 ft 214 kts 335°
2026-04-20 21:00 16.81808 -99.88153 5969 ft 211 kts 340°
2026-04-20 21:00 16.83196 -99.88666 6705 ft 216 kts 342°
2026-04-20 21:00 16.84635 -99.89146 7446 ft 220 kts 344°
2026-04-20 21:00 16.86102 -99.89602 8179 ft 225 kts 345°
2026-04-20 21:01 16.87607 -99.90050 8922 ft 229 kts 346°
2026-04-20 21:01 16.89144 -99.90495 9652 ft 232 kts 347°
2026-04-20 21:01 16.90710 -99.90942 10384 ft 235 kts 347°
2026-04-20 21:01 16.92291 -99.91389 11119 ft 237 kts 347°
2026-04-20 21:02 16.93890 -99.91838 11860 ft 239 kts 348°
2026-04-20 21:02 16.95469 -99.92339 12580 ft 241 kts 335°
2026-04-20 21:02 16.96830 -99.93332 13351 ft 242 kts 323°
2026-04-20 21:02 16.98140 -99.94426 14075 ft 241 kts 324°
2026-04-20 21:03 16.99442 -99.95510 14803 ft 240 kts 324°
2026-04-20 21:03 17.00724 -99.96590 15516 ft 237 kts 324°
2026-04-20 21:03 17.02035 -99.97699 15926 ft 250 kts 323°
2026-04-20 21:03 17.03441 -99.98891 16218 ft 270 kts 323°
2026-04-20 21:04 17.04948 -100.00175 16528 ft 288 kts 323°
2026-04-20 21:04 17.06548 -100.01538 16816 ft 307 kts 322°
2026-04-20 21:04 17.08263 -100.03002 17054 ft 328 kts 322°
2026-04-20 21:04 17.10078 -100.04552 17282 ft 347 kts 322°
2026-04-20 21:05 17.11963 -100.06163 17997 ft 349 kts 322°
2026-04-20 21:05 17.13793 -100.07729 19259 ft 333 kts 321°
2026-04-20 21:05 17.15505 -100.09194 20392 ft 315 kts 321°
2026-04-20 21:05 17.17159 -100.10609 21459 ft 301 kts 321°
2026-04-20 21:06 17.18776 -100.11993 22130 ft 302 kts 321°
2026-04-20 21:06 17.20399 -100.13381 22683 ft 304 kts 321°
2026-04-20 21:06 17.22016 -100.14764 23463 ft 295 kts 320°
2026-04-20 21:06 17.23555 -100.16081 24376 ft 279 kts 319°
2026-04-20 21:07 17.25026 -100.17342 24885 ft 278 kts 319°
2026-04-20 21:07 17.26564 -100.18661 25035 ft 288 kts 319°
2026-04-20 21:07 17.28103 -100.19978 25555 ft 285 kts 319°
2026-04-20 21:07 17.29648 -100.21303 25893 ft 289 kts 319°
2026-04-20 21:08 17.31192 -100.22626 26267 ft 291 kts 319°
2026-04-20 21:08 17.32755 -100.23965 26647 ft 292 kts 319°
2026-04-20 21:08 17.34345 -100.25329 26974 ft 295 kts 319°
2026-04-20 21:08 17.35945 -100.26701 27344 ft 296 kts 318°
2026-04-20 21:09 17.37531 -100.28061 27679 ft 298 kts 318°
2026-04-20 21:09 17.39130 -100.29433 28013 ft 299 kts 318°
2026-04-20 21:09 17.40759 -100.30831 28350 ft 301 kts 318°
2026-04-20 21:09 17.42392 -100.32233 28665 ft 303 kts 317°
2026-04-20 21:10 17.44020 -100.33632 29000 ft 305 kts 317°
2026-04-20 21:10 17.45672 -100.35051 29350 ft 307 kts 317°
2026-04-20 21:10 17.47302 -100.36451 29658 ft 306 kts 317°
2026-04-20 21:10 17.48961 -100.37879 29835 ft 311 kts 317°
2026-04-20 21:11 17.50636 -100.39318 30176 ft 310 kts 317°
2026-04-20 21:11 17.52308 -100.40756 30413 ft 312 kts 317°
2026-04-20 21:11 17.53991 -100.42203 30659 ft 313 kts 317°
2026-04-20 21:11 17.55689 -100.43664 30916 ft 314 kts 317°
2026-04-20 21:12 17.57387 -100.45126 31120 ft 317 kts 317°
2026-04-20 21:12 17.59099 -100.46599 31368 ft 317 kts 317°
2026-04-20 21:12 17.60798 -100.48062 31580 ft 319 kts 317°
2026-04-20 21:12 17.62536 -100.49559 31806 ft 320 kts 317°
2026-04-20 21:13 17.64249 -100.51035 32016 ft 321 kts 317°
2026-04-20 21:13 17.65981 -100.52527 32246 ft 321 kts 317°
2026-04-20 21:13 17.67704 -100.54012 32440 ft 322 kts 317°
2026-04-20 21:13 17.69436 -100.55505 32654 ft 322 kts 317°
2026-04-20 21:14 17.71179 -100.57008 32871 ft 322 kts 317°
2026-04-20 21:14 17.72917 -100.58508 33040 ft 324 kts 317°
2026-04-20 21:14 17.74672 -100.60021 33240 ft 325 kts 317°
2026-04-20 21:14 17.76418 -100.61529 33413 ft 326 kts 317°
2026-04-20 21:15 17.78179 -100.63048 33591 ft 327 kts 317°
2026-04-20 21:15 17.79935 -100.64564 33750 ft 329 kts 317°
2026-04-20 21:15 17.81714 -100.66099 33916 ft 330 kts 317°
2026-04-20 21:15 17.83479 -100.67623 34061 ft 331 kts 317°
2026-04-20 21:16 17.85280 -100.69178 34221 ft 332 kts 317°
2026-04-20 21:16 17.87070 -100.70725 34419 ft 332 kts 317°
2026-04-20 21:16 17.88857 -100.72269 34565 ft 334 kts 316°
2026-04-20 21:16 17.90651 -100.73820 34695 ft 335 kts 317°
2026-04-20 21:17 17.92449 -100.75375 34839 ft 336 kts 316°
2026-04-20 21:17 17.94258 -100.76939 35000 ft 336 kts 316°
2026-04-20 21:17 17.96056 -100.78494 35125 ft 337 kts 317°
2026-04-20 21:17 17.97881 -100.80071 35278 ft 337 kts 316°
2026-04-20 21:18 17.99683 -100.81630 35409 ft 337 kts 316°
2026-04-20 21:18 18.01482 -100.83184 35817 ft 329 kts 316°
2026-04-20 21:18 18.03247 -100.84712 35918 ft 331 kts 316°
2026-04-20 21:18 18.05015 -100.86244 35967 ft 332 kts 316°
2026-04-20 21:19 18.06822 -100.87808 36093 ft 333 kts 316°
2026-04-20 21:19 18.08603 -100.89351 36157 ft 334 kts 316°
2026-04-20 21:20 18.13976 -100.94009 36141 ft 334 kts 316°
2026-04-20 21:20 18.17564 -100.97124 36112 ft 333 kts 316°
2026-04-20 21:21 18.21118 -101.00211 36098 ft 332 kts 316°
2026-04-20 21:21 18.24686 -101.03312 36090 ft 332 kts 316°
2026-04-20 21:22 18.28252 -101.06414 36100 ft 331 kts 316°
2026-04-20 21:22 18.31810 -101.09509 36093 ft 331 kts 316°
2026-04-20 21:23 18.35378 -101.12615 36090 ft 332 kts 316°
2026-04-20 21:23 18.38937 -101.15716 36065 ft 332 kts 315°
2026-04-20 21:24 18.42483 -101.18806 36041 ft 331 kts 316°
2026-04-20 21:24 18.46028 -101.21896 36037 ft 331 kts 315°
2026-04-20 21:25 18.49589 -101.25004 36006 ft 330 kts 315°
2026-04-20 21:25 18.53296 -101.27930 36009 ft 335 kts 332°
2026-04-20 21:25 18.55549 -101.28656 36048 ft 344 kts 350°
2026-04-20 21:26 18.57971 -101.28651 36061 ft 355 kts
2026-04-20 21:26 18.62881 -101.27694 36024 ft 357 kts
2026-04-20 21:27 18.67765 -101.26741 36038 ft 352 kts
2026-04-20 21:27 18.72587 -101.25798 36050 ft 355 kts
2026-04-20 21:28 18.77487 -101.24837 36051 ft 356 kts
2026-04-20 21:28 18.82370 -101.23877 36038 ft 354 kts
2026-04-20 21:29 18.87224 -101.22923 36031 ft 354 kts
2026-04-20 21:29 18.92092 -101.21967 36016 ft 355 kts
2026-04-20 21:30 18.96981 -101.21004 36000 ft 356 kts
2026-04-20 21:30 19.01886 -101.20039 36007 ft 356 kts
2026-04-20 21:31 19.06777 -101.19075 36072 ft 356 kts
2026-04-20 21:31 19.11693 -101.18107 36083 ft 356 kts
2026-04-20 21:32 19.16562 -101.17146 36121 ft 354 kts
2026-04-20 21:32 19.21417 -101.16188 36147 ft 355 kts
2026-04-20 21:33 19.26287 -101.15227 36174 ft 356 kts
2026-04-20 21:33 19.31172 -101.14261 36230 ft 356 kts
2026-04-20 21:34 19.36085 -101.13290 36219 ft 358 kts
2026-04-20 21:34 19.40994 -101.12319 36248 ft 357 kts
2026-04-20 21:35 19.45883 -101.11351 36267 ft 357 kts
2026-04-20 21:35 19.50812 -101.10375 36274 ft 359 kts
2026-04-20 21:36 19.55708 -101.09404 36283 ft 357 kts
2026-04-20 21:36 19.60630 -101.08427 36285 ft 357 kts
2026-04-20 21:37 19.65516 -101.07458 36283 ft 358 kts
2026-04-20 21:37 19.70450 -101.06478 36297 ft 358 kts
2026-04-20 21:38 19.75376 -101.05499 36294 ft 358 kts
2026-04-20 21:38 19.80286 -101.04524 36294 ft 358 kts
2026-04-20 21:38 19.82736 -101.04265 36296 ft 350 kts 349°
2026-04-20 21:39 19.85095 -101.04729 36339 ft 340 kts 332°
2026-04-20 21:39 19.89221 -101.07111 36300 ft 337 kts 322°
2026-04-20 21:40 19.93272 -101.09754 36307 ft 347 kts 321°
2026-04-20 21:40 19.97308 -101.12448 36271 ft 330 kts 321°
2026-04-20 21:40 19.99201 -101.13720 36281 ft 314 kts 320°
2026-04-20 21:41 20.01028 -101.14956 36313 ft 309 kts 320°
2026-04-20 21:41 20.04697 -101.17448 36336 ft 317 kts 320°
2026-04-20 21:42 20.08453 -101.19996 36323 ft 323 kts 320°
2026-04-20 21:42 20.12251 -101.22572 36331 ft 320 kts 320°
2026-04-20 21:43 20.15988 -101.25109 36341 ft 321 kts 320°
2026-04-20 21:43 20.19785 -101.27689 36340 ft 321 kts 320°
2026-04-20 21:44 20.23552 -101.30254 36340 ft 320 kts 320°
2026-04-20 21:44 20.27298 -101.32806 36340 ft 320 kts 320°
2026-04-20 21:45 20.31047 -101.35361 36337 ft 319 kts 320°
2026-04-20 21:45 20.34801 -101.37922 36340 ft 320 kts 321°
2026-04-20 21:46 20.38552 -101.40480 36334 ft 319 kts 320°
2026-04-20 21:46 20.42284 -101.43029 36332 ft 319 kts 320°
2026-04-20 21:47 20.46015 -101.45579 36333 ft 319 kts 320°
2026-04-20 21:47 20.49751 -101.48132 36338 ft 319 kts 320°
2026-04-20 21:48 20.53501 -101.50696 36334 ft 318 kts 320°
2026-04-20 21:48 20.57216 -101.53238 36339 ft 319 kts 320°
2026-04-20 21:49 20.60964 -101.55802 36337 ft 318 kts 320°
2026-04-20 21:49 20.64685 -101.58352 36339 ft 319 kts 320°
2026-04-20 21:50 20.68423 -101.60912 36323 ft 317 kts 320°
2026-04-20 21:50 20.72132 -101.63456 36337 ft 318 kts 320°
2026-04-20 21:51 20.75849 -101.66006 36351 ft 316 kts 320°
2026-04-20 21:51 20.79582 -101.68569 36328 ft 316 kts 320°
2026-04-20 21:52 20.83285 -101.71113 36330 ft 318 kts 320°
2026-04-20 21:52 20.87023 -101.73682 36332 ft 318 kts 320°
2026-04-20 21:53 20.90738 -101.76237 36329 ft 317 kts 320°
2026-04-20 21:53 20.94473 -101.78806 36338 ft 318 kts 320°